Regional Weather Roundup
Issued by NWS

Home | Current Version | Previous Version | Text Only | Print | Product List | Glossary On
Versions: 1 2 3 4 5 6 7 8 9 10 11 12 13 14 15 16 17 18 19 20 21 22 23 24 25 26 27 28 29 30 31 32 33 34 35 36 37 38 39 40 41 42 43 44 45 46 47 48 49 50
000
ASHW40 PHFO 271043
RWRHI

WEATHER ROUNDUP FOR HAWAII
NATIONAL WEATHER SERVICE HONOLULU HI
1200 AM HST MON APR 27 2015

THIS IS AN AUTOMATED REPORT THAT HAS NOT BEEN QUALITY CONTROLLED.

NOTE..."FAIR" INDICATES FEW OR NO CLOUDS BELOW 12,000 FEET WITH NO
SIGNIFICANT WEATHER AND/OR OBSTRUCTIONS TO VISIBILITY.

* - THESE SITES REPORT LIMITED FIELDS

HIZ001>004-271100-
KAUAI-NIIHAU-

CITY           SKY/WX    TMP DP  RH WIND       PRES   REMARKS
LIHUE APT      CLOUDY    73  63  70 N17       30.09S
PORT ALLEN*      N/A     73 N/A N/A NE10        N/A
POIPU*           N/A     73 N/A N/A NE9G17      N/A
PRINCEVILLE*     N/A     72 N/A N/A MISG        N/A
KOKOLE POINT*  NOT AVBL
MOLOAA DAIRY*  NOT AVBL
WAIMEA HTS*      N/A     72  61  68 N1          N/A
PUU OPAE*        N/A     64  57  77 NE6G13      N/A
PUU LUA*       NOT AVBL
MAKAHA RIDGE*    N/A    N/A N/A N/A NE3G12      N/A
$$

HIZ005>011-271100-
OAHU-

CITY           SKY/WX    TMP DP  RH WIND       PRES   REMARKS
HONOLULU       MOCLDY    74  70  87 CALM      30.05S
KALAELOA       CLOUDY    74  65  73 VRB6      30.06S
KANEOHE MCB    CLOUDY    74  68  81 NE18      30.04S
WHEELER FIELD  MOCLDY    70  64  83 NW7       30.06
BELLOWS*         N/A    N/A N/A N/A N15G23      N/A
KAHUKU*          N/A    N/A N/A N/A NE5G10      N/A
WHEELER*       NOT AVBL
WAIANAE HARBOR NOT AVBL
DILLINGHAM*      N/A     73  64  73 MISG        N/A
KAHUKU TRN*      N/A     70  63  78 NE7G14      N/A
KAWAILOA*        N/A     68  63  83 NE12G18     N/A
KII*             N/A     75  66  73 NE15        N/A
MAKUA RANGE*     N/A     73  64  73 E15G25      N/A
OAHU FOREST NW   N/A    N/A N/A N/A CALM        N/A
SCHOFIELD BRK*   N/A     68  64  88 MISG        N/A
SCHOFIELD S*   NOT AVBL
WAIANAE VLY*     N/A     72  63  73 NE10G26     N/A
KUAOKALA*        N/A     70  63  78 N14G30      N/A
HONOULIUULI*   NOT AVBL
MOKUOLOE IS*     N/A    N/A N/A N/A MISG        N/A
PALEHUA*         N/A    N/A N/A N/A NE12G22     N/A
WAIAWA PHB*    NOT AVBL
$$

HIZ012>013-271100-
MOLOKAI-

CITY           SKY/WX    TMP DP  RH WIND       PRES   REMARKS
MOLOKAI AIRPT  LGT RAIN  70  70 100 N12G20    30.05F
KALAUPAPA      NOT AVBL
MAKAPULAPAI*     N/A     73  70  88 NE12G21     N/A
MOLOKAI 1*       N/A     64  63  94 NE3G14      N/A
PUU ALII*        N/A     60  60 100 CALM        N/A
$$

HIZ016-271100-
KAHOOLAWE-

CITY           SKY/WX    TMP DP  RH WIND       PRES   REMARKS
KAHOOLAWE*       N/A     68 N/A N/A NE7         N/A
HAKIOAWA*        N/A     69  69 100 MISG      30.46F
HONOKANAIA*      N/A     73  71  93 N6G15     30.05F
KANELOA*         N/A     73  72  94 MISG      29.27R
KEALIALALO*      N/A     68  68 100 NE8G21    30.04F
LUA MAKIKA*    NOT AVBL
$$

HIZ014>015-271100-
LANAI-

CITY           SKY/WX    TMP DP  RH WIND       PRES   REMARKS
LANAI CITY     RAIN      70  66  88 CALM      30.08F
LANAI 1*         N/A     68  68 100 NE14G20     N/A
$$

HIZ017>028-271100-
MAUI-

CITY           SKY/WX    TMP DP  RH WIND       PRES   REMARKS
KAHULUI        LGT RAIN  73  70  88 NE12      30.04F FOG
KAPALUA-W MAUI NOT AVBL
HANA AIRPORT   CLOUDY    73  70  88 CALM      30.06S
HANA*            N/A     73 N/A N/A NE7G14      N/A
HALEAKALA SUMM   N/A     46  46 100 NE8G23      N/A
MAALAEA BAY*   NOT AVBL
HALEAKALA*     NOT AVBL
KAUPO GAP*       N/A     61  59  94 CALM        N/A
KULA 1*          N/A     55  55 100 N1          N/A
$$

HIZ023>026-271100-
BIG ISLAND OF HAWAII COAST AND LOWER SLOPES-

CITY           SKY/WX    TMP DP  RH WIND       PRES   REMARKS
KAILUA KONA    CLOUDY    77  72  83 NW14      30.00F
HILO           MOCLDY    70  67  90 CALM      30.03F
HONOKAA*       NOT AVBL
KAWAIHAE MWT*    N/A     79 N/A N/A S1          N/A
KAWAIHAE*        N/A     79 N/A N/A SW3         N/A
SOUTH POINT*     N/A     70 N/A N/A N7          N/A
UPOLU AIRPORT*   N/A    N/A N/A N/A E7          N/A
KAMUELA*       CLOUDY    64  61  88 CALM      30.11F
HAKALAU*         N/A     52  51  97 NW3G9       N/A
KALOKO-HONOKO*   N/A     75  66  73 E1G7      29.99
PALI 2*          N/A    N/A N/A N/A NE2         N/A
KEALAKOMO*       N/A     73  66  78 VRB5        N/A
KAUPULEHU*       N/A    N/A N/A N/A S3G10       N/A
KAPAPALA*        N/A     66  65  96 NW3         N/A
LOWER KAHUKU*    N/A    N/A N/A N/A N1G8        N/A
PUHE CS*         N/A     77  66  69 NE1         N/A
PUHO CS*         N/A     72  32  23 E1          N/A
PTA KEAMUKU*     N/A     63  55  77 CALM        N/A
WAIKOLOA*        N/A     72  63  73 E6G12       N/A
$$

HIZ027>028-271100-
BIG ISLAND OF HAWAII INTERIOR AND SUMMMITS-

CITY           SKY/WX    TMP DP  RH WIND       PRES   REMARKS
BRADSHAW FIELD CLOUDY    51  49  93 NW2       30.34F
MK VISITOR CEN NOT AVBL
MAUNA KEA*       N/A     36   7  30 NW18        N/A  WCI  25
MAUNA LOA*       N/A    N/A N/A N/A MISG        N/A
MAUNA LOA 1*   NOT AVBL
PTA KIPUKA*      N/A     52  50  93 SE3         N/A
PTA RANGE 17*    N/A     54  52  94 E3          N/A
PTA WEST*        N/A     66  64  94 SE9         N/A
NENE CABIN*      N/A     54 N/A N/A E2          N/A
AHUMOA*          N/A     53  50  88 NE8         N/A
PTA PORTABLE*  NOT AVBL
PUU MALI*        N/A     55  54  94 SW3         N/A
$$

HIC003-271100-
NORTHWEST ISLANDS-

CITY           SKY/WX    TMP DP  RH WIND       PRES   REMARKS
MIDWAY ISLAND  CLOUDY    66  52  59 E18       30.37S
MIDWAY NOS*    NOT AVBL
FRENCH FRIGATE NOT AVBL
$$

PHZ110>124-180-271100-
BUOY REPORTS

STATION/POSITION TIME  TEMP    WIND        PRES    WAVE   SWELL
                       AIR SEA DIR/SP/G            HT/PER HT/DIR
                 (UTC) (F)     (DEG/KT/KT) (MB)    (FT/S) (FT/D)
BUOY 51001       NOT AVBL
BUOY 51101       1000   72 75   60/ 25/ 31 1020.2F  16/12
BUOY 51100       0900           50/ 23       N/A
BUOY 51002       1000   78 79   90/ 12/ 12 1015.6F   6/10   5/100
BUOY 51003       1000   75 79  100/  8/  8 1016.8F   7/14   7
BUOY 51004       0851   77 77   90/ 12/ 14 1016.0    6/ 9   5/100
BARBERS PT BUOY  NOT AVBL
WAIMEA BAY BUOY  1000      78                N/A     5/13
KAILUA BAY BUOY  1000      77                N/A     6/ 9   2/ 60
LANAI BUOY       1000      79                N/A     3/11   2/180
BARBERS PT 2     1000      78                N/A     5/12   3/290
PAUWELA MAUI     1000      77                N/A     5/ 9
HILO             1000      77                N/A     6/ 9   2/ 90
KANEOHE BAY BUOY 1000      77                N/A     5/ 9   2/ 30
HANALEI KAUAI    1000      78                N/A    10/13   7/320
KAHULUI HARBOR   1000   73 78   60/  8/ 11 1016.9F
HONOLULU HARBOR  1000   74 80   CALM  /  6 1017.4F
KILO NALU        NOT AVBL
HILO HARBOR      1000   71 76  190/  5/  6 1016.3F
MOKUOLOE         1000   76 78   30/ 16/ 18 1018.0S
NAWILIWILI       1000   72 78  360/  6/  9 1018.7R
WHOTS BUOY       NOT AVBL
BUOY 51028       NOT AVBL
$$

......................KEY........................................
  SKY/WX - SKY CONDITIONS/PRESENT WEATHER
  TMP    - TEMPERATURE IN FAHRENHEIT
  DWPT   - DEWPOINT IN FAHRENHEIT
  RH     - RELATIVE HUMIDITY IN PERCENT
  WIND   - DIRECTION AND SPEED /MPH FOR ISLANDS...KTS FOR BUOYS/
  PRES   - MEAN SEA LEVEL PRESSURE IN INCHES OF HG
  VSB    - VISIBILITY IN MILES
  HX     - HEAT INDEX
  WCI    - WIND CHILL INDEX
  VRB    - VARIABLE WIND DIRECTION
  N/A    - NOT AVAILABLE



USA.gov is the U.S. government's official web portal to all federal, state and local government web resources and services.